This is the latest recevied weather packets stored in our database for station/object W7TRD. If no packets are shown the sender has not sent any weather packets the latest 10 day(s).
| Time | Temp. | Humidity | Pressure | Rain* | Wind** | Luminosity | Snow |
|---|---|---|---|---|---|---|---|
| 1788044256 | 21.11° C | 53% | 1019.6 hPa | 0 mm | - | 134 W/m² | - |
| 1788043952 | 21.67° C | 52% | 1019.7 hPa | 0 mm | - | 148 W/m² | - |
| 1788043647 | 21.11° C | 53% | 1019.8 hPa | 0 mm | - | 151 W/m² | - |
| 1788043343 | 21.11° C | 51% | 1019.7 hPa | 0 mm | - | 147 W/m² | - |
| 1788043043 | 21.67° C | 52% | 1019.8 hPa | 0 mm | - | 158 W/m² | - |
| 1788042738 | 21.67° C | 55% | 1019.9 hPa | 0 mm | - | 137 W/m² | - |
| 1788042437 | 21.11° C | 53% | 1020 hPa | 0 mm | - | 215 W/m² | - |
| 1788042132 | 21.67° C | 53% | 1019.9 hPa | 0 mm | - | 203 W/m² | - |
| 1788041828 | 21.67° C | 54% | 1019.9 hPa | 0 mm | - | 380 W/m² | - |
| 1788041523 | 22.22° C | 52% | 1020 hPa | 0 mm | - | 386 W/m² | - |
| 1788041218 | 22.78° C | 53% | 1019.9 hPa | 0 mm | - | 704 W/m² | - |
| 1788040916 | 22.78° C | 52% | 1020.1 hPa | 0 mm | - | 693 W/m² | - |
| 1788040615 | 22.22° C | 57% | 1019.8 hPa | 0 mm | - | 712 W/m² | - |
| 1788040311 | 21.67° C | 56% | 1020.1 hPa | 0 mm | - | 706 W/m² | - |
| 1788040010 | 21.11° C | 57% | 1020.3 hPa | 0 mm | - | 703 W/m² | - |
| 1788039705 | 20.56° C | 60% | 1020.1 hPa | 0 mm | - | 715 W/m² | - |
| 1788039400 | 19.44° C | 61% | 1020.1 hPa | 0 mm | - | 607 W/m² | - |
| 1788039096 | 20° C | 63% | 1020.1 hPa | 0 mm | - | 117 W/m² | - |
| 1788038791 | 20° C | 64% | 1020.1 hPa | 0 mm | - | 739 W/m² | - |
| 1788038497 | 20° C | 63% | 1019.9 hPa | 0 mm | - | 759 W/m² | - |
| 1788038191 | 19.44° C | 64% | 1020.2 hPa | 0 mm | - | 652 W/m² | - |
| 1788037891 | 19.44° C | 67% | 1020.1 hPa | 0 mm | - | 693 W/m² | - |
| 1788037586 | 18.33° C | 70% | 1020.1 hPa | 0 mm | - | 602 W/m² | - |
| 1788037281 | 18.33° C | 73% | 1020.2 hPa | 0 mm | - | 226 W/m² | - |
| 1788036980 | 18.33° C | 73% | 1020.2 hPa | 0 mm | - | 231 W/m² | - |
* Rain latest hour (hover to see other rain measurements)
** Current wind speed in m/s (hover to see current wind gust speed)